This demonstration page uses our WeatherBlox Daily Observations layout. Learn more.

Left ArrowRight Arrow

41.86663, -103.66717

Hourly Observations for September 6, 2021

Temp ( °F °C ) Dew Point ( °F °C ) Humidity (%) Winds ( mph kmh ) Pressure ( in mb ) Visibility ( mi km ) Precip ( " mm )
12:53 am 00:53 undefined 58 14.4 42 5.6 56 56 E 9 15 29.95 1014 10 16 0.00 0.00
1:53 am 01:53 undefined 56 13.3 43 6.1 62 62 ENE 7 11 29.93 1014 10 16 0.00 0.00
2:53 am 02:53 undefined 57 13.9 40 4.4 53 53 E 8 13 29.91 1013 10 16 0.00 0.00
3:53 am 03:53 undefined 54 12.2 42 5.6 64 64 ENE 7 11 29.91 1013 10 16 0.00 0.00
4:53 am 04:53 undefined 50 10 41 5 71 71 NW 6 9 29.91 1013 10 16 0.00 0.00
5:53 am 05:53 undefined 48 8.9 42 5.6 80 80 NNW 6 9 29.92 1013 10 16 0.00 0.00
6:53 am 06:53 undefined 48 8.9 42 5.6 80 80 N 3 6 29.94 1014 10 16 0.00 0.00
7:53 am 07:53 undefined 56 13.3 42 5.6 60 60 WNW 7 11 29.96 1015 10 16 0.00 0.00
8:53 am 08:53 undefined 66 18.9 42 5.6 42 42 WNW 8 13 29.96 1014 10 16 0.00 0.00
9:53 am 09:53 undefined 73 22.8 38 3.3 28 28 NW 8 13 29.93 1014 10 16 0.00 0.00
10:53 am 10:53 undefined 80 26.7 37 2.8 21 21 W 9 15 29.91 1013 10 16 0.00 0.00
11:53 am 11:53 undefined 86 30 39 3.9 19 19 WNW 10 17 29.88 1012 10 16 0.00 0.00
12:53 pm 12:53 undefined 89 31.7 40 4.4 18 18 VRB 7 11 29.85 1011 10 16 0.00 0.00
1:53 pm 13:53 undefined 94 34.4 37 2.8 14 14 W 8 13 29.82 1010 10 16 0.00 0.00
2:53 pm 14:53 undefined 96 35.6 30 -1.1 10 10 W 9 15 29.78 1009 10 16 0.00 0.00
3:53 pm 15:53 undefined 96 35.6 33 0.6 11 11 W 9 15 29.77 1008 10 16 0.00 0.00
4:53 pm 16:53 undefined 96 35.6 32 0 10 10 WNW 12 19 29.78 1008 10 16 0.00 0.00
5:53 pm 17:53 undefined 92 33.3 37 2.8 14 14 NW 8 13 29.79 1009 9 14 0.00 0.00
6:53 pm 18:53 undefined 82 27.8 44 6.7 26 26 NW 3 6 29.81 1010 7 11 0.00 0.00
7:53 pm 19:53 undefined 74 23.3 41 5 31 31 undefined N/A 29.83 1010 9 14 0.00 0.00
8:53 pm 20:53 undefined 68 20 46 7.8 45 45 NNW 3 6 29.86 1011 9 14 0.00 0.00
9:53 pm 21:53 undefined 62 16.7 44 6.7 52 52 NW 9 15 29.87 1012 9 14 0.00 0.00
10:53 pm 22:53 undefined 62 16.7 43 6.1 50 50 NNW 7 11 29.87 1012 10 16 0.00 0.00
11:53 pm 23:53 undefined 60 15.6 39 3.9 46 46 W 3 6 29.88 1012 10 16 0.00 0.00

Powered by AerisWeather